| time (UTC) | temp C | wind direction | speed KPH | gust KPH | rain 1hr cm | rain 24hr cm | rain mn cm | humidity % | barometer mb |
| 20260503222534 | 12 | 2 | 3.2 | 20.9 | 0.00 | 0.00 | 0.00 | 39 | 1006.4 |
| 20260503222034 | 12 | 1 | 4.8 | 14.5 | 0.00 | 0.00 | 0.00 | 37 | 1006.3 |
| 20260503221541 | 12 | 13 | 4.8 | 12.9 | 0.00 | 0.00 | 0.00 | 38 | 1006.3 |
| 20260503221034 | 13 | 5 | 3.2 | 12.9 | 0.00 | 0.00 | 0.00 | 38 | 1006.2 |
| 20260503220534 | 12 | 6 | 1.6 | 11.3 | 0.00 | 0.00 | 0.00 | 39 | 1006.1 |
| 20260503220034 | 12 | 330 | 3.2 | 11.3 | 0.00 | 0.00 | 0.00 | 39 | 1006.1 |
| 20260503215534 | 12 | 1 | 1.6 | 16.1 | 0.00 | 0.00 | 0.00 | 39 | 1006.1 |
| 20260503215033 | 12 | 357 | 4.8 | 16.1 | 0.00 | 0.00 | 0.00 | 39 | 1006.0 |
| 20260503214534 | 12 | 16 | 3.2 | 16.1 | 0.00 | 0.00 | 0.00 | 41 | 1005.9 |
| 20260503214035 | 12 | 356 | 3.2 | 17.7 | 0.00 | 0.00 | 0.00 | 38 | 1005.9 |
| 20260503213532 | 12 | 354 | 4.8 | 17.7 | 0.00 | 0.00 | 0.00 | 39 | 1005.9 |
| 20260503213041 | 12 | 11 | 4.8 | 16.1 | 0.00 | 0.00 | 0.00 | 39 | 1005.8 |
| 20260503212532 | 12 | 17 | 4.8 | 16.1 | 0.00 | 0.00 | 0.00 | 38 | 1005.7 |
| 20260503212032 | 12 | 13 | 3.2 | 11.3 | 0.00 | 0.00 | 0.00 | 38 | 1005.6 |
| 20260503211531 | 13 | 340 | 3.2 | 17.7 | 0.00 | 0.00 | 0.00 | 39 | 1005.6 |
| 20260503211031 | 13 | 8 | 6.4 | 17.7 | 0.00 | 0.00 | 0.00 | 38 | 1005.4 |
| 20260503210530 | 12 | 3 | 9.7 | 22.5 | 0.00 | 0.00 | 0.00 | 37 | 1005.4 |
| 20260503210030 | 12 | 10 | 4.8 | 22.5 | 0.00 | 0.00 | 0.00 | 39 | 1005.3 |
| 20260503205530 | 12 | 31 | 6.4 | 20.9 | 0.00 | 0.00 | 0.00 | 39 | 1005.2 |
| 20260503205030 | 12 | 288 | 4.8 | 17.7 | 0.00 | 0.00 | 0.00 | 39 | 1005.1 |
| 20260503204544 | 12 | 172 | 3.2 | 14.5 | 0.00 | 0.00 | 0.00 | 40 | 1005.2 |
| 20260503204029 | 12 | 128 | 4.8 | 14.5 | 0.00 | 0.00 | 0.00 | 41 | 1005.0 |
| 20260503203529 | 12 | 19 | 3.2 | 14.5 | 0.00 | 0.00 | 0.00 | 40 | 1005.0 |
| 20260503203131 | 12 | 215 | 3.2 | 12.9 | 0.00 | 0.00 | 0.00 | 40 | 1004.9 |
| 20260503202528 | 12 | 337 | 3.2 | 22.5 | 0.00 | 0.00 | 0.00 | 40 | 1004.8 |
| 20260503202029 | 12 | 188 | 3.2 | 22.5 | 0.00 | 0.00 | 0.00 | 39 | 1004.8 |
| 20260503201529 | 12 | 269 | 3.2 | 22.5 | 0.00 | 0.00 | 0.00 | 40 | 1004.9 |
| 20260503201028 | 12 | 171 | 4.8 | 22.5 | 0.00 | 0.00 | 0.00 | 40 | 1004.8 |
| 20260503200528 | 12 | 332 | 4.8 | 16.1 | 0.00 | 0.00 | 0.00 | 41 | 1004.8 |
| 20260503200028 | 12 | 1 | 4.8 | 16.1 | 0.00 | 0.00 | 0.00 | 40 | 1004.7 |
| 20260503195527 | 12 | 351 | 4.8 | 16.1 | 0.00 | 0.00 | 0.00 | 40 | 1004.7 |
| 20260503195027 | 12 | 13 | 1.6 | 16.1 | 0.00 | 0.00 | 0.00 | 40 | 1004.7 |
| 20260503194527 | 12 | 339 | 3.2 | 16.1 | 0.00 | 0.00 | 0.00 | 40 | 1004.7 |
| 20260503194028 | 12 | 349 | 4.8 | 16.1 | 0.00 | 0.00 | 0.00 | 40 | 1004.7 |
| 20260503193526 | 12 | 316 | 3.2 | 16.1 | 0.00 | 0.00 | 0.00 | 40 | 1004.7 |
| 20260503193033 | 12 | 313 | 1.6 | 17.7 | 0.00 | 0.00 | 0.00 | 41 | 1004.8 |
| 20260503192525 | 12 | 24 | 6.4 | 24.1 | 0.00 | 0.00 | 0.00 | 40 | 1004.7 |
| 20260503192023 | 12 | 4 | 9.7 | 24.1 | 0.00 | 0.00 | 0.00 | 40 | 1004.7 |
| 20260503191523 | 12 | 336 | 8.0 | 20.9 | 0.00 | 0.00 | 0.00 | 41 | 1004.8 |
| 20260503191023 | 12 | 22 | 4.8 | 20.9 | 0.00 | 0.00 | 0.00 | 42 | 1004.7 |
| 20260503190522 | 12 | 8 | 6.4 | 20.9 | 0.00 | 0.00 | 0.00 | 42 | 1004.8 |
| 20260503190021 | 12 | 114 | 4.8 | 16.1 | 0.00 | 0.00 | 0.00 | 42 | 1004.7 |
| 20260503185520 | 12 | 327 | 3.2 | 19.3 | 0.00 | 0.03 | 0.00 | 44 | 1004.7 |
| 20260503185019 | 12 | 200 | 4.8 | 19.3 | 0.00 | 0.03 | 0.00 | 42 | 1004.7 |
| 20260503184532 | 12 | 156 | 1.6 | 17.7 | 0.00 | 0.03 | 0.00 | 41 | 1004.7 |
| 20260503184020 | 12 | 360 | 1.6 | 16.1 | 0.00 | 0.03 | 0.00 | 42 | 1004.7 |
| 20260503183517 | 12 | 1 | 4.8 | 12.9 | 0.00 | 0.03 | 0.00 | 43 | 1004.7 |
| 20260503183016 | 12 | 6 | 4.8 | 12.9 | 0.00 | 0.03 | 0.00 | 43 | 1004.7 |
| 20260503182515 | 12 | 352 | 3.2 | 11.3 | 0.00 | 0.03 | 0.00 | 43 | 1004.7 |
| 20260503182015 | 12 | 150 | 3.2 | 11.3 | 0.00 | 0.03 | 0.00 | 44 | 1004.7 |
| 20260503181514 | 12 | 306 | 3.2 | 17.7 | 0.00 | 0.03 | 0.00 | 43 | 1004.8 |
| 20260503181014 | 12 | 296 | 4.8 | 17.7 | 0.00 | 0.03 | 0.00 | 44 | 1004.7 |
| 20260503180513 | 12 | 23 | 4.8 | 19.3 | 0.00 | 0.03 | 0.00 | 44 | 1004.7 |
| 20260503180020 | 12 | 30 | 4.8 | 19.3 | 0.00 | 0.03 | 0.00 | 43 | 1004.8 |
| 20260503175510 | 12 | 349 | 3.2 | 11.3 | 0.00 | 0.03 | 0.00 | 45 | 1004.6 |
| 20260503175010 | 12 | 10 | 3.2 | 14.5 | 0.00 | 0.03 | 0.00 | 45 | 1004.6 |
| 20260503174508 | 12 | 335 | 3.2 | 19.3 | 0.00 | 0.03 | 0.00 | 45 | 1004.7 |
| 20260503174106 | 12 | 27 | 4.8 | 19.3 | 0.00 | 0.03 | 0.00 | 45 | 1004.7 |
| 20260503173505 | 12 | 27 | 9.7 | 17.7 | 0.00 | 0.03 | 0.00 | 44 | 1004.8 |
| 20260503173005 | 12 | 28 | 6.4 | 17.7 | 0.00 | 0.03 | 0.00 | 46 | 1004.7 |
| 20260503172504 | 12 | 150 | 6.4 | 17.7 | 0.00 | 0.03 | 0.00 | 47 | 1004.8 |
| 20260503172002 | 12 | 351 | 4.8 | 12.9 | 0.00 | 0.03 | 0.00 | 49 | 1004.8 |
| 20260503171501 | 12 | 3 | 3.2 | 17.7 | 0.00 | 0.03 | 0.00 | 48 | 1004.8 |
| 20260503171100 | 12 | 17 | 8.0 | 17.7 | 0.00 | 0.03 | 0.00 | 49 | 1004.9 |
| 20260503170600 | 11 | 12 | 8.0 | 22.5 | 0.00 | 0.03 | 0.00 | 50 | 1004.9 |
| 20260503150548 | 10 | 344 | 6.4 | 22.5 | 0.00 | 0.03 | 0.00 | 61 | 1004.8 |
| 20260503131043 | 8 | 330 | 6.4 | 16.1 | 0.00 | 0.03 | 0.00 | 63 | 1004.8 |
| 20260503130540 | 8 | 12 | 6.4 | 17.7 | 0.00 | 0.03 | 0.00 | 64 | 1004.8 |
| 20260503110529 | 6 | 38 | 3.2 | 6.4 | 0.00 | 0.03 | 0.00 | 67 | 1005.6 |
| 20260503081510 | 8 | 360 | 1.6 | 8.0 | 0.00 | 0.03 | 0.00 | 56 | 1006.1 |
| 20260503081009 | 8 | 353 | 0.0 | 4.8 | 0.00 | 0.03 | 0.00 | 57 | 1006.1 |
| 20260503080509 | 8 | 353 | 1.6 | 6.4 | 0.00 | 0.03 | 0.00 | 56 | 1006.2 |
| 20260503072504 | 8 | 341 | 1.6 | 8.0 | 0.00 | 0.03 | 0.00 | 55 | 1006.5 |
| 20260503072006 | 8 | 8 | 3.2 | 11.3 | 0.00 | 0.03 | 0.00 | 54 | 1006.4 |
| 20260503071509 | 8 | 7 | 1.6 | 11.3 | 0.00 | 0.03 | 0.00 | 54 | 1006.2 |
| 20260503071003 | 8 | 13 | 3.2 | 9.7 | 0.00 | 0.03 | 0.00 | 54 | 1006.4 |
| 20260503070501 | 8 | 5 | 3.2 | 9.7 | 0.00 | 0.03 | 0.00 | 54 | 1006.5 |
| 20260503055050 | 9 | 15 | 0.0 | 9.7 | 0.00 | 0.03 | 0.00 | 56 | 1007.3 |
| 20260503054549 | 9 | 15 | 1.6 | 9.7 | 0.00 | 0.03 | 0.00 | 56 | 1007.3 |
| 20260503054048 | 9 | 334 | 1.6 | 9.7 | 0.00 | 0.03 | 0.00 | 56 | 1007.6 |
| 20260503053547 | 9 | 2 | 1.6 | 9.7 | 0.00 | 0.03 | 0.00 | 56 | 1007.8 |
| 20260503053046 | 9 | 5 | 1.6 | 9.7 | 0.00 | 0.03 | 0.00 | 56 | 1007.9 |
| 20260503052545 | 10 | 5 | 1.6 | 9.7 | 0.00 | 0.03 | 0.00 | 56 | 1007.8 |
| 20260503052044 | 10 | 34 | 1.6 | 9.7 | 0.00 | 0.03 | 0.00 | 57 | 1007.9 |
| 20260503051543 | 10 | 360 | 1.6 | 9.7 | 0.00 | 0.03 | 0.00 | 57 | 1007.9 |
| 20260503051043 | 10 | 3 | 3.2 | 9.7 | 0.00 | 0.03 | 0.00 | 56 | 1008.0 |
| 20260503050543 | 10 | 28 | 3.2 | 9.7 | 0.00 | 0.03 | 0.00 | 57 | 1007.9 |
| 20260503050042 | 10 | 3 | 3.2 | 8.0 | 0.00 | 0.03 | 0.00 | 57 | 1007.9 |
| 20260503045544 | 10 | 358 | 1.6 | 8.0 | 0.00 | 0.03 | 0.00 | 58 | 1007.9 |
| 20260503045043 | 10 | 5 | 1.6 | 8.0 | 0.00 | 0.03 | 0.00 | 59 | 1007.8 |
| 20260503044539 | 10 | 341 | 1.6 | 8.0 | 0.00 | 0.03 | 0.00 | 58 | 1008.0 |
| 20260503044037 | 10 | 342 | 1.6 | 6.4 | 0.00 | 0.03 | 0.00 | 59 | 1008.2 |
| 20260503043537 | 10 | 353 | 0.0 | 8.0 | 0.00 | 0.03 | 0.00 | 59 | 1008.3 |
| 20260503043041 | 10 | 188 | 1.6 | 8.0 | 0.00 | 0.03 | 0.00 | 60 | 1008.4 |
| 20260503042536 | 10 | 1 | 1.6 | 11.3 | 0.00 | 0.03 | 0.00 | 61 | 1008.4 |
| 20260503042035 | 10 | 8 | 4.8 | 12.9 | 0.00 | 0.03 | 0.00 | 61 | 1008.3 |
| 20260503041535 | 10 | 16 | 1.6 | 12.9 | 0.00 | 0.03 | 0.00 | 66 | 1008.2 |
| 20260503041032 | 10 | 3 | 3.2 | 9.7 | 0.00 | 0.03 | 0.00 | 66 | 1008.3 |
| 20260503040532 | 10 | 8 | 3.2 | 9.7 | 0.00 | 0.03 | 0.00 | 70 | 1008.3 |
| 20260503040039 | 10 | 5 | 1.6 | 9.7 | 0.00 | 0.03 | 0.00 | 75 | 1008.4 |
| 20260503035532 | 10 | 358 | 0.0 | 6.4 | 0.00 | 0.03 | 0.03 | 82 | 1008.6 |
| 20260503035031 | 10 | 5 | 1.6 | 6.4 | 0.00 | 0.03 | 0.03 | 87 | 1008.6 |
| 20260503034543 | 10 | 357 | 0.0 | 0.0 | 0.00 | 0.03 | 0.03 | 91 | 1008.6 |
| 20260503034030 | 10 | 357 | 0.0 | 0.0 | 0.00 | 0.03 | 0.03 | 91 | 1008.6 |
| 20260503033529 | 10 | 357 | 0.0 | 0.0 | 0.00 | 0.03 | 0.03 | 92 | 1008.6 |
| 20260503033038 | 10 | 352 | 0.0 | 0.0 | 0.00 | 0.03 | 0.03 | 91 | 1008.7 |
| 20260503032529 | 10 | 353 | 0.0 | 0.0 | 0.00 | 0.03 | 0.03 | 91 | 1008.7 |
| 20260503032029 | 10 | 353 | 0.0 | 0.0 | 0.00 | 0.03 | 0.03 | 91 | 1008.7 |
| 20260503031536 | 10 | 353 | 0.0 | 0.0 | 0.00 | 0.03 | 0.03 | 91 | 1008.5 |
| 20260503031029 | 10 | 353 | 0.0 | 0.0 | 0.00 | 0.03 | 0.03 | 91 | 1008.5 |
| 20260503030528 | 10 | 353 | 0.0 | 0.0 | 0.00 | 0.03 | 0.03 | 91 | 1008.6 |
| 20260503030030 | 10 | 353 | 0.0 | 0.0 | 0.00 | 0.03 | 0.03 | 91 | 1008.4 |
| 20260503025528 | 10 | 219 | 0.0 | 0.0 | 0.00 | 0.03 | 0.03 | 91 | 1008.4 |
| 20260503025031 | 10 | 219 | 0.0 | 0.0 | 0.00 | 0.03 | 0.03 | 91 | 1008.5 |
| 20260503024527 | 10 | 219 | 0.0 | 0.0 | 0.00 | 0.03 | 0.03 | 91 | 1008.5 |
| 20260503024027 | 10 | 219 | 0.0 | 0.0 | 0.00 | 0.03 | 0.03 | 90 | 1008.5 |
| 20260503023527 | 10 | 219 | 0.0 | 0.0 | 0.00 | 0.03 | 0.03 | 90 | 1008.5 |
| 20260503023027 | 10 | 219 | 0.0 | 0.0 | 0.00 | 0.03 | 0.03 | 90 | 1008.5 |
| 20260503022526 | 10 | 219 | 0.0 | 0.0 | 0.00 | 0.03 | 0.03 | 90 | 1008.6 |
| 20260503022026 | 10 | 219 | 0.0 | 0.0 | 0.00 | 0.03 | 0.03 | 90 | 1008.7 |
| 20260503021531 | 10 | 219 | 0.0 | 0.0 | 0.00 | 0.03 | 0.03 | 90 | 1008.7 |
| 20260503021026 | 10 | 219 | 0.0 | 0.0 | 0.00 | 0.03 | 0.03 | 90 | 1008.7 |
| 20260503020528 | 10 | 219 | 0.0 | 0.0 | 0.00 | 0.03 | 0.03 | 90 | 1008.6 |
| 20260503020026 | 10 | 219 | 0.0 | 0.0 | 0.00 | 0.03 | 0.03 | 90 | 1008.6 |
| 20260503015525 | 10 | 219 | 0.0 | 0.0 | 0.00 | 0.03 | 0.03 | 90 | 1008.7 |
| 20260503015025 | 10 | 219 | 0.0 | 0.0 | 0.00 | 0.03 | 0.03 | 90 | 1008.7 |
| 20260503014525 | 10 | 219 | 0.0 | 0.0 | 0.00 | 0.03 | 0.03 | 89 | 1008.7 |
| 20260503014025 | 10 | 219 | 0.0 | 0.0 | 0.00 | 0.03 | 0.03 | 89 | 1008.8 |
| 20260503013525 | 10 | 219 | 0.0 | 0.0 | 0.00 | 0.03 | 0.03 | 89 | 1008.8 |
| 20260503013024 | 10 | 219 | 0.0 | 0.0 | 0.00 | 0.03 | 0.03 | 89 | 1008.8 |
| 20260503012524 | 10 | 219 | 0.0 | 0.0 | 0.00 | 0.03 | 0.03 | 89 | 1008.9 |
| 20260503012024 | 10 | 219 | 0.0 | 0.0 | 0.00 | 0.03 | 0.03 | 89 | 1008.9 |
| 20260503011522 | 10 | 219 | 0.0 | 0.0 | 0.00 | 0.03 | 0.03 | 90 | 1008.9 |
| 20260503011021 | 10 | 219 | 0.0 | 0.0 | 0.00 | 0.03 | 0.03 | 89 | 1008.9 |
| 20260503010522 | 10 | 219 | 0.0 | 0.0 | 0.00 | 0.03 | 0.03 | 89 | 1008.8 |
| 20260503010020 | 10 | 219 | 0.0 | 0.0 | 0.00 | 0.03 | 0.03 | 89 | 1008.8 |
| 20260503005519 | 10 | 219 | 0.0 | 0.0 | 0.00 | 0.03 | 0.03 | 89 | 1008.8 |
| 20260503005019 | 10 | 219 | 0.0 | 0.0 | 0.00 | 0.03 | 0.03 | 89 | 1008.7 |
| 20260503004516 | 10 | 219 | 0.0 | 0.0 | 0.00 | 0.03 | 0.03 | 90 | 1008.7 |
| 20260503004020 | 10 | 219 | 0.0 | 0.0 | 0.00 | 0.03 | 0.03 | 90 | 1008.7 |
| 20260503003513 | 10 | 219 | 0.0 | 0.0 | 0.00 | 0.03 | 0.03 | 90 | 1008.7 |
| 20260503003012 | 10 | 219 | 0.0 | 0.0 | 0.00 | 0.03 | 0.03 | 90 | 1008.6 |
| 20260503002511 | 10 | 219 | 0.0 | 0.0 | 0.00 | 0.03 | 0.03 | 90 | 1008.7 |
| 20260503002011 | 10 | 219 | 0.0 | 0.0 | 0.00 | 0.03 | 0.03 | 90 | 1008.7 |
| 20260503001511 | 10 | 219 | 0.0 | 0.0 | 0.00 | 0.03 | 0.03 | 89 | 1008.7 |
| 20260503001011 | 10 | 218 | 0.0 | 0.0 | 0.00 | 0.03 | 0.03 | 90 | 1008.6 |
| 20260503000510 | 10 | 218 | 0.0 | 0.0 | 0.00 | 0.03 | 0.03 | 90 | 1008.5 |
| 20260503000010 | 10 | 219 | 0.0 | 0.0 | 0.00 | 0.03 | 0.03 | 90 | 1008.6 |
| 20260502235510 | 10 | 219 | 0.0 | 0.0 | 0.00 | 0.03 | 0.03 | 90 | 1008.7 |
| 20260502235010 | 10 | 219 | 0.0 | 0.0 | 0.00 | 0.03 | 0.03 | 89 | 1008.7 |
| 20260502234509 | 10 | 219 | 0.0 | 0.0 | 0.00 | 0.03 | 0.03 | 89 | 1008.7 |
| 20260502234009 | 10 | 219 | 0.0 | 0.0 | 0.00 | 0.03 | 0.03 | 89 | 1008.6 |
| 20260502233508 | 10 | 218 | 0.0 | 0.0 | 0.00 | 0.03 | 0.03 | 89 | 1008.7 |
| 20260502233010 | 10 | 218 | 0.0 | 0.0 | 0.00 | 0.03 | 0.03 | 89 | 1008.7 |
| 20260502232509 | 10 | 218 | 0.0 | 0.0 | 0.00 | 0.03 | 0.03 | 89 | 1008.8 |
| 20260502232012 | 10 | 218 | 0.0 | 0.0 | 0.00 | 0.03 | 0.03 | 89 | 1008.8 |
| 20260502231515 | 10 | 218 | 0.0 | 0.0 | 0.00 | 0.03 | 0.03 | 88 | 1008.8 |
| 20260502231010 | 10 | 218 | 0.0 | 0.0 | 0.00 | 0.03 | 0.03 | 88 | 1008.7 |
| 20260502230508 | 10 | 218 | 0.0 | 0.0 | 0.00 | 0.03 | 0.03 | 88 | 1008.8 |
| 20260502230009 | 10 | 218 | 0.0 | 0.0 | 0.00 | 0.03 | 0.03 | 88 | 1008.8 |
| 20260502225507 | 10 | 218 | 0.0 | 0.0 | 0.00 | 0.03 | 0.03 | 88 | 1008.9 |
| 20260502225007 | 10 | 218 | 0.0 | 0.0 | 0.00 | 0.03 | 0.03 | 87 | 1008.8 |
| 20260502224506 | 10 | 219 | 0.0 | 0.0 | 0.00 | 0.03 | 0.03 | 87 | 1008.8 |
| 20260502224006 | 10 | 219 | 0.0 | 0.0 | 0.00 | 0.03 | 0.03 | 87 | 1008.8 |
| 20260502223508 | 10 | 219 | 0.0 | 0.0 | 0.00 | 0.03 | 0.03 | 87 | 1008.7 |
| 20260502223007 | 10 | 219 | 0.0 | 0.0 | 0.00 | 0.03 | 0.03 | 87 | 1008.8 |